Regional Weather Roundup
Issued by NWS

Home | Current Version | Previous Version | Text Only | Print | Product List | Glossary On
Versions: 1 2 3 4 5 6 7 8 9 10 11 12 13 14 15 16 17 18 19 20 21 22 23 24 25 26 27 28 29 30 31 32 33 34 35 36 37 38 39 40 41 42 43 44 45 46 47 48 49 50
000
ASUS42 KFFC 010710
RWRGA
WEATHER ROUNDUP FOR GEORGIA
NATIONAL WEATHER SERVICE PEACHTREE CITY GA
300 AM EDT SAT OCT 01 2016

NOTE: "FAIR" INDICATES FEW OR NO CLOUDS BELOW 12,000 FEET WITH NO
SIGNIFICANT WEATHER AND/OR OBSTRUCTIONS TO VISIBILITY.

* = USE WITH CAUTION. THE STATIONS MARKED WITH AN ASTERISK MAY NOT
REPORT WEATHER SUCH AS PRECIPITATION, FOG, OR THUNDER AND ARE NOT
QUALITY CONTROLLED BY NWS.

THE REMARK "TC" DENOTES TEMPERATURE READING IN DEGREES CELSIUS.

GAZ001>058-010800-
NORTH GEORGIA

CITY           SKY/WX    TMP DP  RH WIND       PRES   REMARKS
ATLANTA        CLEAR     59  50  72 NW6       30.06F
ATHENS         CLEAR     54  51  90 CALM      30.06F
CHAMBLEE       CLEAR     53  49  86 CALM      30.06F
PEACHTREE CITY CLEAR     50  49  96 CALM      30.07F
ROME           CLEAR     52  48  86 CALM      30.07S
WEST ATLANTA   CLEAR     53  50  89 CALM      30.07F
GAINESVILLE    CLEAR     56  52  86 NW6       30.08F
CARTERSVILLE   CLEAR     50  48  93 CALM      30.08F


CITY           SKY/WX    TMP DP  RH WIND       PRES   REMARKS
DALTON*        CLEAR     48  48 100 CALM      30.08S
MARIETTA       CLEAR     55  49  82 CALM      30.06F
CANTON*        CLEAR     50  45  81 CALM      30.08F
BLAIRSVILLE*     N/A    N/A N/A N/A MISG      30.11S
$$

GAZ059>098-102>109-010800-
CENTRAL GEORGIA

CITY           SKY/WX    TMP DP  RH WIND       PRES   REMARKS
AUGUSTA-BUSH   PTCLDY    53  51  93 CALM      30.03F
AUGUSTA-DANIEL CLEAR     65  47  52 NW5       30.04F
COLUMBUS       CLEAR     56  49  77 CALM      30.06F
MACON          CLEAR     52  50  93 W5        30.05F
ROBINS AFB     CLEAR     53  51  91 NW7       30.04F


CITY           SKY/WX    TMP DP  RH WIND       PRES   REMARKS
LAGRANGE*      CLEAR     51  51 100 CALM      30.07F
MILLEDGEVILLE* CLEAR     55  55 100 CALM      30.05S
$$

GAZ099>101-110>166-010800-
SOUTH GEORGIA

CITY           SKY/WX    TMP DP  RH WIND       PRES   REMARKS
SAVANNAH       CLEAR     63  59  87 N3        30.01F
VALDOSTA       CLEAR     56  56 100 CALM      30.04R
ALMA           CLEAR     56  54  93 CALM      30.03F
ST SIMONS      PTCLDY    72  56  57 NW6       29.99F
FT STEWART     PTCLDY    58  55  89 CALM      29.99F
ALBANY         PTCLDY    56  53  90 NW6       30.06F
HUNTER AFB     CLEAR     65  61  86 N2        29.99F
MOODY AFB      CLEAR     57  54  88 CALM      30.02S
BRUNSWICK      PTCLDY    68  61  77 CALM      30.00F


CITY           SKY/WX    TMP DP  RH WIND       PRES   REMARKS
BAINBRIDGE*    CLEAR     59  55  88 CALM      30.05S
MOULTRIE*      PTCLDY    59  57  94 CALM      30.05S
VIDALIA*       PTCLDY    59  55  88 CALM      30.04S
WAYCROSS*      CLEAR     60  58  93 CALM      30.03S
DOUGLAS*       CLEAR     57  54  88 CALM      30.05S
$$



USA.gov is the U.S. government's official web portal to all federal, state and local government web resources and services.